Regional Weather Roundup
Issued by NWS

Home | Current Version | Previous Version | Graphics & Text | Print | Product List | Glossary Off
Versions: 1 2 3 4 5 6 7 8 9 10 11 12 13 14 15 16 17 18 19 20 21 22 23 24 25 26 27 28 29 30 31 32 33 34 35 36 37 38 39 40 41 42 43 44 45 46 47 48 49 50

135
ASUS43 KTOP 211959
RWRKS

WEATHER ROUNDUP FOR KANSAS
NATIONAL WEATHER SERVICE GOODLAND KS
300 PM CDT THU MAY 21 2015

NOTE:  "FAIR" INDICATES FEW OR NO CLOUDS BELOW 12,000 FEET WITH NO
SIGNIFICANT WEATHER AND/OR OBSTRUCTIONS TO VISIBILITY.

KSZ001>006-013>018-027>032-041>047-212100-
NORTHWEST KANSAS

CITY           SKY/WX    TMP DP  RH WIND       PRES   REMARKS
GOODLAND       CLOUDY    56  42  59 S12       30.25F
HAYS           SUNNY     61  37  41 E3        30.27F
HILL CITY      SUNNY     62  39  42 VRB3      30.26F
RUSSELL        MOSUNNY   62  43  49 NE7       30.26F
$$

KSZ061>065-074>080-084>089-212100-
SOUTHWEST KANSAS

CITY           SKY/WX    TMP DP  RH WIND       PRES   REMARKS
DODGE CITY     PTSUNNY   59  41  51 VRB5      30.27F
ELKHART          N/A     57  44  62 SE8         N/A
GARDEN CITY    CLOUDY    56  41  57 E3        30.25F
GREAT BEND     PTSUNNY   61  43  51 S6        30.27F
LIBERAL        PTSUNNY   57  43  58 CALM      30.28F
$$

KSZ066>073-081>083-090>101-212100-
SOUTHEAST KANSAS

CITY           SKY/WX    TMP DP  RH WIND       PRES   REMARKS
CHANUTE        MOSUNNY   63  45  51 MISG      30.27F
COFFEYVILLE    PTSUNNY   61  46  57 E6        30.26F
HUTCHINSON     SUNNY     64  40  41 NE6       30.27S
NEWTON         SUNNY     63  43  48 NE10      30.28F
PARSONS        MOSUNNY   64  48  56 VRB5      30.28F
WICHITA INTL   PTSUNNY   65  42  43 E8        30.25F
WICHITA JABRA  SUNNY     63  44  50 E8        30.25F
WINFIELD       MOSUNNY   63  45  51 CALM      30.26F
$$

KSZ007>012-019>026-033>040-048>060-102>105-212100-
NORTHEAST KANSAS

CITY           SKY/WX    TMP DP  RH WIND       PRES   REMARKS
CONCORDIA      SUNNY     65  39  38 VRB3      30.27F
EMPORIA        SUNNY     63  42  46 N7        30.27F
LAWRENCE       MOSUNNY   65  43  44 VRB7      30.26F
MANHATTAN      SUNNY     65  39  38 VRB5      30.26F
OLATHE IND     SUNNY     65  45  48 N6        30.27F
OLATHE EXE     SUNNY     65  43  44 NE9       30.25F
SALINA         SUNNY     65  40  39 VRB7      30.27F
TOPEKA BILLARD SUNNY     66  44  45 E7        30.26F
TOPEKA FORBES  SUNNY     66  44  45 W5        30.26F
$$



USA.gov is the U.S. government's official web portal to all federal, state and local government web resources and services.